TimeMST,TemperatureF,Dew PointF,Humidity,Sea Level PressureIn,VisibilityMPH,Wind Direction,Wind SpeedMPH,Gust SpeedMPH,PrecipitationIn,Events,Conditions,WindDirDegrees,DateUTC
12:15 AM,-2.2,-5.8,85,30.19,3.0,Calm,Calm,-,N/A,,Overcast,0,2013-01-15 07:15:00
12:35 AM,-2.2,-5.8,85,30.19,7.0,Calm,Calm,-,N/A,,Overcast,0,2013-01-15 07:35:00
12:55 AM,-4.0,-5.8,92,30.20,5.0,Calm,Calm,-,N/A,,Overcast,0,2013-01-15 07:55:00
2:15 AM,-5.8,-7.6,92,30.23,10.0,Calm,Calm,-,N/A,,Overcast,0,2013-01-15 09:15:00
2:35 AM,-4.0,-5.8,92,30.23,10.0,Calm,Calm,-,N/A,,Overcast,0,2013-01-15 09:35:00
2:55 AM,-5.8,-7.6,92,30.24,10.0,Calm,Calm,-,N/A,,Overcast,0,2013-01-15 09:55:00
3:15 AM,-7.6,-9.4,92,30.25,10.0,East,4.6,-,N/A,,Scattered Clouds,80,2013-01-15 10:15:00
3:35 AM,-7.6,-9.4,92,30.25,10.0,Calm,Calm,-,N/A,,Clear,0,2013-01-15 10:35:00
3:55 AM,-7.6,-9.4,92,30.26,8.0,North,4.6,-,N/A,,Clear,10,2013-01-15 10:55:00
4:15 AM,-9.4,-11.2,92,30.26,2.5,Calm,Calm,-,N/A,,Scattered Clouds,0,2013-01-15 11:15:00
4:35 AM,-7.6,-9.4,92,30.25,2.0,East,3.5,-,N/A,,Mostly Cloudy,80,2013-01-15 11:35:00
4:56 AM,-5.8,-9.4,84,30.27,5.0,ENE,3.5,-,N/A,,Overcast,60,2013-01-15 11:56:00
5:15 AM,-7.6,-9.4,92,30.28,10.0,NW,4.6,-,N/A,,Overcast,320,2013-01-15 12:15:00
5:35 AM,-5.8,-7.6,92,30.27,10.0,Calm,Calm,-,N/A,,Overcast,0,2013-01-15 12:35:00
5:55 AM,-4.0,-5.8,92,30.27,9.0,Calm,Calm,-,N/A,,Overcast,0,2013-01-15 12:55:00
6:15 AM,-4.0,-5.8,92,30.28,8.0,Calm,Calm,-,N/A,,Overcast,0,2013-01-15 13:15:00
6:35 AM,-4.0,-5.8,92,30.29,10.0,Calm,Calm,-,N/A,,Overcast,0,2013-01-15 13:35:00
6:51 AM,-4.0,-5.8,92,30.30,10.0,Calm,Calm,-,N/A,,Mostly Cloudy,0,2013-01-15 13:51:00
7:51 AM,-2.2,-5.8,85,30.30,4.0,Calm,Calm,-,N/A,Snow,Light Snow,0,2013-01-15 14:51:00
8:51 AM,-2.2,-5.8,85,30.33,5.0,Calm,Calm,-,N/A,,Mostly Cloudy,0,2013-01-15 15:51:00
9:57 AM,1.4,-2.2,85,30.33,10.0,Calm,Calm,-,N/A,,Mostly Cloudy,0,2013-01-15 16:57:00
10:51 AM,1.4,-2.2,85,30.35,10.0,North,-9999.0,-,N/A,,Scattered Clouds,0,2013-01-15 17:51:00
11:51 AM,3.2,-0.4,85,30.34,2.0,Calm,Calm,-,N/A,Snow,Light Snow,0,2013-01-15 18:51:00
12:15 PM,5.0,-0.4,78,30.34,4.0,Calm,Calm,-,N/A,Snow,Light Snow,0,2013-01-15 19:15:00
12:51 PM,3.2,-0.4,85,30.34,3.0,Calm,Calm,-,N/A,Snow,Light Snow,0,2013-01-15 19:51:00
1:55 PM,5.0,1.4,85,30.33,3.0,Calm,Calm,-,N/A,,Mostly Cloudy,0,2013-01-15 20:55:00
2:51 PM,6.8,1.4,79,30.35,7.0,SSE,4.6,-,N/A,,Scattered Clouds,150,2013-01-15 21:51:00
3:53 PM,6.8,1.4,79,30.37,10.0,SE,3.5,-,N/A,,Clear,140,2013-01-15 22:53:00
4:51 PM,6.8,1.4,79,30.38,10.0,Calm,Calm,-,N/A,,Scattered Clouds,0,2013-01-15 23:51:00
5:52 PM,-0.4,-2.2,92,30.38,10.0,Calm,Calm,-,N/A,,Scattered Clouds,0,2013-01-16 00:52:00
6:55 PM,-0.4,-2.2,92,30.41,10.0,Calm,Calm,-,N/A,,Scattered Clouds,0,2013-01-16 01:55:00
7:51 PM,-0.4,-2.2,92,30.41,10.0,Calm,Calm,-,N/A,,Scattered Clouds,0,2013-01-16 02:51:00
8:51 PM,1.4,-0.4,92,30.42,10.0,North,4.6,-,N/A,,Scattered Clouds,360,2013-01-16 03:51:00
8:55 PM,1.4,-0.4,92,30.42,9.0,Calm,Calm,-,N/A,,Overcast,0,2013-01-16 03:55:00
9:35 PM,3.2,1.4,92,30.42,5.0,Calm,Calm,-,N/A,,Overcast,0,2013-01-16 04:35:00
10:15 PM,3.2,1.4,92,30.42,6.0,Calm,Calm,-,N/A,,Overcast,0,2013-01-16 05:15:00
10:35 PM,3.2,1.4,92,30.43,2.5,Calm,Calm,-,N/A,,Overcast,0,2013-01-16 05:35:00
10:55 PM,3.2,1.4,92,30.43,3.0,Calm,Calm,-,N/A,,Overcast,0,2013-01-16 05:55:00
11:15 PM,5.0,3.2,92,30.43,2.5,NNW,3.5,-,N/A,,Overcast,340,2013-01-16 06:15:00
11:35 PM,5.0,3.2,92,30.44,2.5,Calm,Calm,-,N/A,,Overcast,0,2013-01-16 06:35:00
11:55 PM,6.8,3.2,85,30.45,3.0,Calm,Calm,-,N/A,,Overcast,0,2013-01-16 06:55:00